Погода в Намангане

Погода в Намангане : погода сейчас, прогноз погоды и архив. Всё, что Вы хотите узнать о погоде в Намангане!

Хотите узнать прогноз погоды в Намангане? Тогда Вам сюда: Погода в Намангане

Поиск расширенной информации на нашем сайте:

Другие новости

Новости СМИ2

Главная страница сайта

Новости сайта

03.07.2017

Напоминаем, что на нашем специализированном сайте Метеоцентр.Азия вы можете получить высокодетализированные автоматические прогнозы погоды по пунктам России, СНГ и мира в авиационном формате (включающие направление и скорость ветра, видимость, явления погоды, количество и форму облачности, нижнюю и верхнюю границу облачности).

Рекомендуем: Тумбы в прихожую недорогие тумбы.

Погода в Намангане - сегодня

Время (UTC), дата Ветер
(°,м/с) 
Видим.   Явления Облачность Т
(°С)
Тd
(°С)
f(%) Тe
(°С)
Pmin
(гПа)
dP
(гПа)
Po
(мм)
O2
(г/м3)
Тmin Tmax R s Состояние
почвы
00 19.09.17 350 (С) 10 км    4/0 верхняя 
[Ci fib]
+16.8 +7 52 +18  1016.6  721  273           
03 19.09.17 350 (С) 10 км    ясно 
+19.4 +8 48 +20  1017.4  1.2  722  270           
06 19.09.17 110 (В) 10 км    ясно 
+25 +7.4 32 +25  1016.3  -0.1  722  265  +16         
09 19.09.17 190 (Ю) 10 км    ясно 
+28.7 +8 27 +29  1013.8  -1.6  721  262           
12 19.09.17 240 (ЮЗ) 10 км    ясно 
+28.5 +10.9 33 +32  1012.8  -1  720  261           
15 19.09.17 340 (С) 10 км    ясно 
+21.5 +12.1 55 +26  1014.5  0.4  721  267    +29.7       
18 19.09.17 340 (С) 10 км    ясно 
+19.6 +11 58 +23  1015.1  0.2  721  269    +29.7       
21 19.09.17 340 (С) 10 км    ясно 
+18.5 +9.2 55 +20  1015.3  721  270           
00 20.09.17 340 (С) 10 км    ясно 
+17.4 +8.9 57 +19  1015.2  -0.3  720  271    +1.5       
03 20.09.17 330 (СЗ) 10 км    ясно 
+21 +10.9 52 +24  1014.6  0.1  721  268  +16.5        сухая 
06 20.09.17 160 (Ю) 10 км    ясно 
+26.8 +9.9 35 +29  1013.9  0.3  721  263  +16.5         
09 20.09.17 230 (ЮЗ) 10 км    1/1 1500 м кучево-дожд. 
[Cb calv]
+29.3 +11.3 33 +33  1010.7  -2.5  719  259           
12 20.09.17 210 (ЮЗ) 10 км    1/1 1500 м кучево-дожд. 
[Cb calv]
+29.4 +12 34 +34  1008.5  -2.1  717  259           
15 20.09.17 030 (СВ) 10 км    3/3 1500 м кучево-дожд. 
[Cb calv]
+21.8 +13.5 59 +29  1010.4  0.5  718  265    +30       
18 20.09.17 360 (С) 10 км    ясно 
+19 +11.3 61 +24  1011.3  0.4  718  268    +30       
21 20.09.17 330 (СЗ) 10 км    ясно 
+18.7 +9.9 57 +21  1011.4  718  269           
00 21.09.17 340 (С) 10 км    ясно 
+16.7 +9.9 64 +20  1012.3  0.4  718  271           
03 21.09.17 340 (С) 10 км    ясно 
+19.6 +10.4 55 +24  1012.1  0.4  719  268  +16        сухая 
06 21.09.17 150 (ЮВ) 10 км    ясно 
+25.3 +7.4 32 +25  1010.6    718  264  +16         
09 21.09.17 210 (ЮЗ) 10 км    1/1 1500 м кучево-дожд. 
[Cb calv]
+29 +7 25 +29  1007.8  -2.1  717  260           
12 21.09.17 240 (ЮЗ) 10 км    3/3 1500 м кучево-дожд. 
[Cb calv]
+28.4 +9.4 30 +30  1007.6  -0.1  717  260           
15 21.09.17 340 (С) 10 км    3/0 средняя 
[Ac cast]
+21.4 +11.5 53 +26  1010.5  1.5  718  266    +30       
18 21.09.17 350 (С) 10 км    ясно 
+19.4 +11.4 60 +24  1010.8  718  268    +30       
21 21.09.17 320 (СЗ) 10 км    ясно 
+18.3 +10 58 +21  1011.2  0.1  718  269           
00 22.09.17 330 (СЗ) 10 км    ясно 
+16.2 +9 62 +19  1011.6  718  271           
Время (UTC), дата Ветер
(°,м/с) 
Видим.   Явления Облачность Т
(°С)
Тd
(°С)
f(%) Тe
(°С)
Pmin
(гПа)
dP
(гПа)
Po
(мм)
O2
(г/м3)
Тmin Tmax R s Состояние
почвы

Для получения пояснительной информации подведите курсор к названию столбца.

ПОГОДА в Намангане - архив

Всё, что Вы хотите узнать о погоде в Намангане - удобно и подробно!

Выберите нужную дату (начиная с 1 января 2015* года) и нажмите кнопку "Найти".
Будут отображены архивные сводки погоды по пункту Наманган, начиная с указанной даты.


Отображать данные в формате CSV (для использования в таблицах Excel)


Внимание! Наш архив погоды предназначен исключительно для личного некоммерческого использования в познавательных целях. Если Вам необходимы официальные справки о состоянии погоды (для производственных, юридических, коммерческих и т.п. целей), обращайтесь в органы Росгидромета.

*Примечание: данная дата относится к архиву по метеостанциям СССР (Россия, СНГ, Балтия).
Архив по метеостанциям Зарубежной Европы и Азии (кроме Китая) хранится 10 дней, по другим регионам земного шара (Китай, Африка, Америка, Австралия, Океания) - 1 день.

Наманган - район местоположения метеостанции


Название, широта, долгота, высота метеостанции:
Наманган 41°ш. 71.6°д. 474 м над ур. моря [Узбекистан]

Дополнительная информация

В oтличие oт бoльшинства пoгoдных сайтoв мы публикуем пoдрoбную метеoинфoрмацию в детальнoм прoфессиoнальнoм фoрмате.

Характеристики температуры и влажнoсти вoздуха измеряются на высoте 2 м в тени вдали oт зданий и деревьев.
Скoрoсть ветра измеряется на высoте 10 м (на урoвне рoста челoвека скoрoсть ветра ниже в 1.5-2 раза). Если метеoстанция нахoдится в гoрoде или в лесу, тo скoрoсть ветра занижена на 2-4 м/с пo сравнению с oткрытым местoм. Скoрoсть ветра над акватoриями крупных рек и oзёр, а также на вершинах хoлмoв на 2-5 м/с выше, чем в oбычных услoвиях.
Атмoсфернoе давление в разных тoчках местнoсти мoжет значительнo oтличаться oт давления на метеoстанции, в зависимoсти oт услoвий рельефа (при пoдъёме на 10 м давление пoнижается примернo на 1 мм рт.ст.).